PST,Max TemperatureF,Mean TemperatureF,Min TemperatureF,Max Dew PointF,MeanDew PointF,Min DewpointF,Max Humidity, Mean Humidity, Min Humidity, Max Sea Level PressureIn, Mean Sea Level PressureIn, Min Sea Level PressureIn, Max VisibilityMiles, Mean VisibilityMiles, Min VisibilityMiles, Max Wind SpeedMPH, Mean Wind SpeedMPH, Max Gust SpeedMPH,PrecipitationIn, CloudCover, Events, WindDirDegrees
2011-11-1,77,58,38,44,29,2,100,53,6,30.14,30.10,30.06,10,10,10,8,2,,0.00,0,,345
2011-11-2,76,56,35,38,29,17,76,44,12,30.15,30.07,30.00,10,10,10,4,0,,0.00,0,,310
2011-11-3,56,44,31,44,36,30,93,74,54,30.01,29.88,29.80,10,10,9,8,2,16,0.08,4,Rain,306
2011-11-4,57,46,34,38,35,32,100,72,43,29.96,29.89,29.83,10,9,0,9,2,,0.00,3,Fog,309
2011-11-5,48,42,36,45,41,35,100,88,76,30.00,29.91,29.85,10,7,0,8,1,20,0.67,6,Fog-Rain,297
2011-11-6,56,48,39,45,41,38,100,81,61,30.16,29.98,29.91,10,4,0,9,2,17,0.00,7,Fog,25
2011-11-7,60,48,35,43,38,35,100,76,51,30.28,30.21,30.17,10,6,0,6,1,,0.00,4,Fog,15
2011-11-8,62,49,35,42,39,35,100,71,42,30.35,30.30,30.25,10,6,0,5,1,,0.00,4,Fog,40
2011-11-9,65,49,32,42,35,32,100,67,34,30.31,30.25,30.12,10,6,0,13,3,23,0.00,3,Fog,127
2011-11-10,68,50,32,38,33,26,92,57,21,30.14,30.03,29.90,10,10,6,17,3,32,0.00,0,,180
2011-11-11,55,47,38,52,45,36,100,83,66,29.88,29.80,29.75,10,8,2,5,1,,0.05,6,Rain,171
2011-11-12,63,54,44,49,47,43,100,78,56,29.96,29.89,29.85,10,6,0,6,1,,0.01,4,Fog,343
2011-11-13,66,53,39,50,44,38,96,72,48,30.03,29.98,29.93,10,10,9,4,0,,0.00,2,,290
2011-11-14,64,52,40,44,43,38,93,69,44,30.10,30.04,29.99,10,10,10,9,2,,0.00,1,,333
2011-11-15,65,51,36,45,41,35,100,72,44,30.22,30.17,30.12,10,10,9,14,3,22,0.00,0,,339
2011-11-16,67,51,35,46,42,35,100,73,45,30.26,30.21,30.17,10,10,7,7,1,,0.00,0,,340
2011-11-17,58,48,37,54,44,37,100,86,72,30.23,30.15,30.04,10,9,3,10,2,,0.05,6,Rain,318
2011-11-18,51,45,39,47,43,37,100,88,76,30.04,29.96,29.89,10,8,3,9,2,17,0.32,7,Rain,17
2011-11-19,50,42,35,41,38,33,100,78,56,30.01,29.88,29.66,10,7,0,16,4,22,0.24,7,Fog-Rain,151
2011-11-20,55,47,39,44,40,38,100,80,59,30.05,29.82,29.65,10,10,8,8,3,,0.10,5,Rain,334
2011-11-21,55,46,36,45,42,36,100,81,61,30.22,30.15,30.06,10,10,7,10,3,17,0.00,8,,151
2011-11-22,54,51,48,47,45,43,93,82,71,30.22,30.15,30.03,10,10,9,15,9,22,0.01,8,Rain,156
2011-11-23,53,52,50,50,47,43,100,86,71,30.01,29.86,29.79,10,7,2,16,7,24,0.66,8,Rain,150
2011-11-24,55,50,45,50,47,41,100,80,59,30.23,30.01,29.85,10,8,2,10,2,,0.26,7,Rain,333
2011-11-25,55,50,45,50,46,44,100,89,77,30.40,30.31,30.25,10,6,2,5,0,,0.09,8,Rain,322
2011-11-26,64,53,42,52,45,41,100,78,55,30.41,30.35,30.28,10,9,0,4,1,,0.00,3,Fog,320
2011-11-27,62,51,39,48,42,39,100,76,52,30.36,30.31,30.26,10,4,0,4,0,,0.00,2,Fog,220
2011-11-28,66,53,39,47,42,39,100,76,52,30.32,30.27,30.20,10,7,0,4,1,,0.00,2,Fog,303
2011-11-29,66,52,37,47,40,36,100,72,43,30.30,30.25,30.17,10,5,0,5,1,,0.00,2,Fog,310
2011-11-30,64,50,36,40,38,34,100,69,37,30.32,30.25,30.20,10,10,10,10,3,,0.00,0,,311